Overview Statistics Trail Chart Weather Telemetry Raw packets
 

This is the latest recevied weather packets stored in our database for station/object IK3SVW-3. If no packets are shown the sender has not sent any weather packets the latest 10 day(s).

<< 39 40 41 42 43 44 45 >>
Time Temp. Humidity Pressure Rain* Wind** Luminosity Snow
1787766978 27.78° C 60% 1014 hPa 0 mm - - -
1787766324 27.78° C 60% 1014 hPa 0 mm - - -
1787765002 28.33° C 58% 1014 hPa 0 mm - - -
1787764339 28.33° C 57% 1014 hPa 0 mm - - -
1787763918 28.89° C 57% 1013 hPa 0 mm - - -
1787762538 28.89° C 54% 1013 hPa 0 mm - - -
1787761638 29.44° C 54% 1014 hPa 0 mm - - -
1787760980 29.44° C 53% 1014 hPa 0 mm - - -
1787760028 30° C 51% 1014 hPa 0 mm - - -
1787759365 30.56° C 50% 1014 hPa 0 mm - - -
1787758038 30.56° C 50% 1014 hPa 0 mm - - -
1787757378 30° C 50% 1014 hPa 0 mm - - -
1787756724 30° C 52% 1014 hPa 0 mm - - -
1787755099 29.44° C 53% 1014 hPa 0 mm - - -
1787753778 29.44° C 53% 1014 hPa 0 mm - - -
1787752822 28.89° C 52% 1014 hPa 0 mm - - -
1787750840 28.89° C 47% 1014 hPa 0 mm - - -
1787750179 29.44° C 49% 1014 hPa 0 mm - - -
1787749522 28.89° C 51% 1014 hPa 0 mm - - -
1787748800 28.33° C 53% 1014 hPa 0 mm - - -
1787748140 28.33° C 51% 1014 hPa 0 mm - - -
1787747898 28.33° C 50% 1015 hPa 0 mm - - -
1787747286 28.33° C 53% 1015 hPa 0 mm - - -
1787747239 28.33° C 53% 1015 hPa 0 mm - - -
1787746999 28.33° C 53% 1014 hPa 0 mm - - -

* Rain latest hour (hover to see other rain measurements)
** Current wind speed in m/s (hover to see current wind gust speed)